Lumberton, NC

12:09 AM EDT on October 24, 2017 (GMT -0400)
Lumberton Municipal

Weather History for KLBT - October, 2013

Change the Weather History Date:

Saturday, October 12, 2013

  Actual Average Record
Temperature  
Mean Temperature 68 °F 65 °F  
Max Temperature 77 °F 76 °F 88 °F (2010)
Min Temperature 58 °F 53 °F 33 °F (2000)
Degree Days  
Heating Degree Days 0 3  
Month to date heating degree days 7 24  
Since 1 July heating degree days 7 33  
Cooling Degree Days 3 2  
Month to date cooling degree days 63 41  
Year to date cooling degree days 1830 1862  
Growing Degree Days 16 (Base 50)    
Moisture  
Dew Point 61 °F    
Average Humidity 80    
Maximum Humidity 100    
Minimum Humidity 60    
Precipitation  
Precipitation T in 0.07 in 1.07 in (2011)
Month to date precipitation 0.16 1.37  
Year to date precipitation 37.54 36.56  
Sea Level Pressure  
Sea Level Pressure 30.01 in    
Wind  
Wind Speed 5 mph (North)    
Max Wind Speed 13 mph    
Max Gust Speed 17 mph    
Visibility 10 miles    
Events      
T = Trace of Precipitation, MM = Missing Value Source: NWS Daily Summary

Daily Weather History Graph

Daily Weather History Graph

Search for Another Location

Airport or City:

Trip Planner

Search our weather history database for the weather conditions in past years. The results will help you decide how hot, cold, wet, or windy it might be!

Date:

Astronomy

Oct. 12, 2013 Rise Set
Actual Time 7:19 AM EDT 6:45 PM EDT
Civil Twilight 6:54 AM EDT 7:10 PM EDT
Nautical Twilight 6:25 AM EDT 7:39 PM EDT
Astronomical Twilight 5:55 AM EDT 8:08 PM EDT
Moon 2:39 PM EDT (10/12) 12:36 AM EDT (10/12)
Length of Visible Light 12h 16m
Length of Day
11h 25m
First Quarter, 58% of the Moon is Illuminated
Oct 12
First Quarter
Oct 18
Full
Oct 26
Last Quarter
Nov 3
New
Nov 10
First Quarter

Hourly Weather History & Observations

Time (EDT) Temp. Dew Point Humidity Pressure Visibility Wind Dir Wind Speed Gust Speed Precip Events Conditions
12:54 AM 64.9 °F 63.0 °F 93% 29.96 in 10.0 mi Calm Calm - N/A   Overcast
1:54 AM 64.9 °F 63.0 °F 93% 29.96 in 10.0 mi Calm Calm - 0.00 in   Overcast
2:54 AM 64.0 °F 63.0 °F 96% 29.95 in 10.0 mi Calm Calm - N/A   Overcast
3:54 AM 63.0 °F 62.1 °F 97% 29.95 in 10.0 mi Calm Calm - N/A   Overcast
4:54 AM 64.0 °F 62.1 °F 93% 29.95 in 10.0 mi North 4.6 mph - N/A   Overcast
5:54 AM 63.0 °F 60.1 °F 90% 29.97 in 10.0 mi NNE 4.6 mph - N/A   Mostly Cloudy
6:54 AM 57.9 °F 57.0 °F 97% 30.00 in 10.0 mi Calm Calm - N/A   Clear
7:32 AM 59.0 °F 57.2 °F 94% 30.01 in 8.0 mi Calm Calm - N/A   Mostly Cloudy
7:54 AM 61.0 °F 60.1 °F 97% 30.02 in 10.0 mi Calm Calm - N/A   Overcast
8:28 AM 62.6 °F 60.8 °F 94% 30.02 in 10.0 mi WNW 3.5 mph - N/A   Overcast
8:54 AM 64.0 °F 61.0 °F 90% 30.03 in 10.0 mi Calm Calm - N/A   Overcast
9:54 AM 64.0 °F 60.1 °F 87% 30.04 in 10.0 mi NW 9.2 mph - N/A   Overcast
10:54 AM 66.0 °F 59.0 °F 78% 30.04 in 10.0 mi NNW 6.9 mph - N/A   Overcast
11:54 AM 70.0 °F 60.1 °F 71% 30.04 in 10.0 mi NW 5.8 mph - N/A   Overcast
12:22 PM 71.6 °F 60.8 °F 69% 30.03 in 10.0 mi NNW 8.1 mph - N/A   Mostly Cloudy
12:54 PM 71.1 °F 59.0 °F 66% 30.02 in 10.0 mi NNW 9.2 mph - N/A   Mostly Cloudy
1:54 PM 75.0 °F 60.1 °F 60% 30.00 in 10.0 mi North 8.1 mph - N/A   Mostly Cloudy
2:06 PM 75.2 °F 60.8 °F 61% 30.00 in 10.0 mi North 9.2 mph - N/A   Scattered Clouds
2:54 PM 75.0 °F 60.1 °F 60% 30.00 in 10.0 mi North 4.6 mph - N/A   Mostly Cloudy
3:54 PM 75.0 °F 61.0 °F 62% 30.00 in 10.0 mi North 10.4 mph - N/A   Mostly Cloudy
4:54 PM 73.9 °F 61.0 °F 64% 30.00 in 10.0 mi NE 9.2 mph - N/A   Overcast
5:54 PM 73.0 °F 62.1 °F 68% 30.01 in 10.0 mi North 6.9 mph - N/A   Overcast
6:54 PM 71.1 °F 62.1 °F 73% 30.03 in 10.0 mi NNE 5.8 mph - N/A   Overcast
7:54 PM 70.0 °F 62.1 °F 76% 30.04 in 10.0 mi NE 6.9 mph - N/A   Overcast
8:54 PM 68.0 °F 63.0 °F 84% 30.04 in 10.0 mi Calm Calm - N/A   Mostly Cloudy
9:54 PM 66.9 °F 63.0 °F 87% 30.05 in 10.0 mi North 4.6 mph - N/A   Mostly Cloudy
10:54 PM 66.9 °F 64.0 °F 90% 30.06 in 10.0 mi North 3.5 mph - N/A   Overcast
11:54 PM 66.9 °F 64.0 °F 90% 30.06 in 10.0 mi North 4.6 mph - N/A   Overcast